Temperature
16 15 15 15 15 14 14 14 14 14 13 13 13 12 11 11 11 10 10 10 10 9 9 9 9 9 9 8 8 8 8 7 7 7 7 6 6 5 5 5 4 4 3
16 15 15 15 14 14 14 14 13 13 13 13 12 12 11 11 11 10 10 10 10 9 9 9 9 9 9 8 8 8 7 7 7 6 6 6 5 5 4 4 3 3 2
15 15 15 14 14 14 14 13 13 13 12 12 12 12 11 11 11 10 10 10 10 10 9 9 9 9 8 8 8 7 7 7 6 6 6 5 5 4 4 3 3 2 2
15 15 14 14 14 14 14 13 13 12 12 12 12 12 11 11 11 10 10 10 9 9 9 9 9 8 8 8 7 7 7 6 6 5 5 4 4 3 3 2 2 2 1
15 14 14 14 14 13 13 13 12 12 12 12 11 11 11 10 10 10 10 9 9 9 9 9 8 8 8 7 7 7 6 6 5 5 5 4 3 3 2 1 1 0 0
14 14 14 14 13 13 13 12 12 12 12 11 11 11 11 10 10 10 10 9 9 9 9 8 8 8 7 7 7 6 6 5 5 4 4 3 2 2 1 0 -0 -1 -1
14 14 14 13 13 12 12 12 12 12 11 11 11 11 10 10 10 10 9 9 9 9 8 8 8 7 7 7 6 6 5 5 4 3 3 2 1 1 0 -0 -1 -1 -2
13 13 13 12 12 12 12 12 12 11 11 11 11 10 10 10 10 9 9 9 9 8 8 8 7 7 7 6 6 5 5 4 3 3 2 1 0 -0 -1 -1 -2 -2 -2
12 13 12 12 12 12 11 11 11 11 11 11 10 10 10 10 9 9 9 9 8 8 8 7 7 6 6 6 5 5 4 3 3 2 1 1 -0 -1 -1 -2 -2 -3 -3
12 12 12 12 11 11 11 11 11 11 11 10 10 10 10 9 9 9 8 8 8 8 7 7 6 6 5 5 4 4 3 3 2 1 1 0 -1 -1 -2 -3 -3 -4 -5
11 11 11 11 11 11 11 10 10 10 10 10 10 9 9 9 9 8 8 8 8 7 7 6 6 5 5 4 4 3 3 2 1 1 0 -1 -1 -2 -3 -3 -4 -5 -5
10 11 11 10 10 10 10 10 10 10 9 9 9 9 8 8 8 8 8 7 7 7 6 6 5 5 4 4 3 2 2 1 1 0 -1 -1 -2 -3 -3 -4 -5 -5 -6
10 10 10 10 9 9 9 9 9 9 9 9 9 8 8 8 7 7 7 7 6 6 6 5 4 4 3 3 2 2 1 1 -0 -1 -1 -2 -3 -4 -4 -5 -5 -6 -6
9 9 9 9 9 9 9 9 9 9 8 8 8 8 8 7 7 7 6 6 6 5 5 4 4 3 3 2 2 1 0 -0 -1 -2 -2 -3 -4 -4 -5 -5 -6 -6 -6
9 9 9 9 8 8 8 8 8 8 9 9 8 8 8 8 7 7 6 6 5 5 4 4 3 3 2 2 1 0 -0 -1 -2 -2 -3 -4 -4 -5 -5 -6 -6 -7 -7
8 8 8 8 8 8 8 7 7 8 8 8 8 8 7 7 7 6 5 5 4 4 4 3 3 2 2 1 0 -0 -1 -2 -2 -3 -4 -4 -5 -5 -6 -7 -7 -8 -8
8 8 8 8 8 8 8 7 7 6 6 6 7 7 7 6 6 5 5 4 4 3 3 3 2 2 1 0 -0 -1 -2 -2 -3 -4 -4 -5 -5 -6 -7 -7 -8 -8 -8
8 8 8 8 8 8 7 7 7 6 6 6 5 6 5 5 5 5 4 4 3 3 2 2 1 1 0 -0 -1 -2 -2 -3 -4 -4 -5 -6 -6 -7 -7 -8 -8 -8 -9
7 7 7 7 7 7 7 7 6 6 6 5 5 4 4 4 4 3 3 3 3 2 2 1 1 0 -0 -1 -2 -2 -3 -4 -4 -5 -5 -6 -7 -7 -8 -8 -8 -9 -9
7 7 7 7 7 7 6 6 6 6 6 5 5 5 4 4 3 3 3 2 2 2 1 1 0 -0 -1 -2 -2 -3 -3 -4 -5 -5 -6 -6 -7 -7 -8 -8 -9 -9 -9
6 6 6 6 6 6 6 6 6 6 5 5 5 4 4 4 3 3 2 2 1 1 1 0 -0 -1 -2 -2 -3 -3 -4 -5 -5 -6 -6 -7 -7 -8 -8 -9 -9 -9 -10
6 6 6 6 6 6 6 6 5 5 5 5 4 3 3 3 3 2 2 1 1 0 -0 -1 -1 -2 -2 -3 -3 -4 -4 -5 -6 -6 -7 -7 -8 -8 -9 -9 -9 -10 -10
5 5 5 5 5 5 5 5 5 5 4 4 4 3 3 2 2 2 1 1 0 -0 -1 -1 -2 -2 -3 -3 -4 -4 -5 -5 -6 -6 -7 -7 -8 -8 -9 -9 -10 -10 -10
5 5 5 5 5 5 5 4 4 4 4 3 3 3 2 2 2 1 1 0 -0 -1 -1 -2 -2 -3 -3 -4 -4 -5 -5 -6 -6 -7 -7 -8 -8 -9 -9 -9 -10 -10 -10
4 4 5 5 5 4 4 4 4 4 3 3 3 2 2 1 1 0 -0 -1 -1 -2 -2 -2 -3 -3 -4 -4 -5 -5 -5 -6 -6 -7 -7 -8 -8 -9 -9 -10 -10 -10 -10
4 4 4 4 4 4 4 4 3 3 3 3 2 2 1 1 0 -0 -1 -1 -2 -2 -2 -3 -3 -4 -4 -5 -5 -5 -6 -6 -7 -7 -8 -8 -9 -9 -9 -10 -10 -10 -11
Wind_Speed
21 21 20 19 19 17 17 18 17 15 15 15 16 15 15 14 14 13 12 12 13 11 10 10 10 7 6 5 4 4 4 4 5 4 1 1 1 1 2 4 5 5 7
20 19 19 18 18 18 17 17 17 16 16 15 15 15 15 15 14 14 14 13 13 13 11 10 10 7 7 5 5 5 4 4 4 5 2 1 1 1 2 2 3 4 6
17 18 17 17 18 19 18 16 16 16 15 15 15 16 16 15 14 14 13 12 12 11 11 11 10 8 8 6 5 5 4 3 3 3 2 1 1 1 1 2 3 4 6
15 17 17 18 18 18 17 16 16 16 16 16 15 15 14 14 13 12 11 11 10 9 9 9 9 10 9 7 6 5 4 3 2 2 2 1 1 1 0 2 3 3 4
14 16 17 16 14 14 15 15 15 15 15 14 13 13 12 12 12 12 11 11 10 9 8 7 7 8 9 7 6 5 5 4 3 2 2 1 1 1 1 1 3 4 4
14 14 14 14 14 14 14 14 14 14 14 13 14 13 12 10 14 16 14 11 10 10 8 6 6 6 7 8 7 8 7 5 4 3 2 2 3 2 1 1 1 2 4
12 12 13 15 15 14 13 13 14 14 13 13 13 13 12 13 16 17 16 11 10 9 8 7 5 5 7 6 6 6 5 4 5 4 3 3 3 2 2 1 2 2 4
11 12 13 14 14 13 14 14 13 12 13 12 12 13 11 12 17 17 16 11 8 8 8 8 8 7 7 8 7 5 3 2 3 2 3 2 2 2 2 1 2 2 3
12 12 13 14 14 14 14 13 11 12 11 11 11 12 12 12 16 18 16 9 8 7 7 8 8 8 10 12 9 7 4 2 5 6 5 4 4 4 4 3 2 2 3
11 12 12 13 14 14 14 12 10 11 11 11 10 10 12 11 16 18 17 9 9 8 6 7 9 10 11 12 8 7 6 3 4 4 5 5 5 5 5 3 1 1 1
9 11 11 12 12 13 11 11 12 12 12 11 11 9 9 11 15 18 17 10 10 9 7 6 6 11 12 11 9 6 6 6 5 4 3 3 3 3 3 3 1 1 1
10 11 11 11 11 11 13 12 13 13 13 12 11 9 7 9 12 15 17 15 13 10 8 6 7 13 12 11 8 8 10 9 5 4 3 2 1 2 2 3 3 3 2
11 11 12 12 11 12 14 14 13 12 11 11 10 10 8 7 9 16 17 18 16 10 9 12 13 14 12 9 10 11 9 5 4 3 2 1 1 1 2 3 4 5 5
11 12 12 12 11 11 10 11 12 12 12 11 11 11 10 8 8 9 10 11 15 12 10 13 15 15 11 10 9 6 4 4 4 3 2 1 1 1 1 2 2 3 3
11 11 11 11 11 10 9 8 10 9 12 14 12 12 13 11 11 16 14 11 10 11 12 8 6 6 6 5 5 5 4 3 3 2 2 1 1 2 2 2 2 2 2
11 11 10 10 10 10 11 9 11 10 14 15 15 14 11 14 20 20 19 20 20 20 12 8 7 6 6 5 5 4 3 3 2 2 2 1 1 1 2 2 2 2 3
11 11 10 10 11 11 11 12 11 12 15 16 18 19 19 22 23 22 22 21 20 17 9 8 7 6 6 5 4 4 2 2 2 2 2 1 1 1 1 2 3 3 3
10 11 11 10 11 11 11 11 12 13 12 9 13 19 22 23 23 23 23 18 11 8 7 7 7 6 6 5 4 4 3 3 2 2 1 1 1 1 1 2 2 3 3
10 9 10 10 10 11 11 12 12 13 13 12 11 13 19 21 21 20 17 9 10 8 6 6 6 6 5 5 4 4 4 3 2 2 1 1 0 0 1 2 2 5 4
9 13 13 11 12 12 12 12 12 13 13 12 12 12 11 12 10 10 7 7 8 7 7 7 6 6 5 5 5 4 4 3 2 2 1 0 0 0 1 2 2 3 3
10 12 15 13 12 12 12 12 12 12 12 11 10 12 15 11 10 9 8 7 7 7 7 7 6 6 5 5 4 4 4 3 2 2 1 0 0 0 1 2 2 3 3
10 10 11 12 12 12 12 11 12 12 13 13 11 12 17 10 9 8 7 7 6 6 6 6 6 5 5 5 5 4 4 3 2 2 1 1 1 1 1 2 2 3 3
11 12 12 12 12 16 14 12 12 12 12 12 12 11 10 9 8 8 8 7 7 6 7 7 6 5 5 5 5 5 4 3 3 3 2 1 1 1 1 2 3 3 4
12 13 14 13 13 13 13 13 12 12 12 12 11 10 10 9 9 9 8 7 7 7 7 7 6 7 7 5 4 4 4 4 4 4 4 3 2 1 2 2 3 3 4
12 13 13 13 13 13 13 13 13 12 12 11 11 10 10 10 9 9 8 7 8 7 7 7 7 7 7 6 5 4 4 4 3 4 4 3 2 2 2 2 3 3 4
12 13 12 12 13 13 13 13 13 13 12 11 11 10 10 10 9 9 8 7 7 6 6 6 7 7 6 5 5 5 4 3 3 3 3 3 2 2 2 2 3 3 4
Wind_Direction
194 194 194 196 195 193 194 196 194 191 188 190 192 193 194 194 193 194 197 192 198 198 195 199 207 199 197 197 188 186 193 186 226 255 242 267 221 264 289 264 259 265 278
194 193 194 193 192 193 195 194 191 190 191 190 189 192 195 195 195 196 197 195 197 198 197 197 205 195 196 194 190 195 200 193 204 242 252 256 250 274 284 280 288 286 287
191 190 190 190 192 193 194 191 189 189 189 188 188 192 193 193 194 196 195 194 195 197 196 198 200 190 199 196 192 196 196 185 187 205 237 233 263 322 320 310 315 305 302
188 188 189 191 193 192 189 187 187 186 187 189 190 191 189 189 190 190 188 188 189 191 192 194 194 193 197 192 192 194 180 173 172 184 213 221 241 299 323 300 308 308 303
185 188 190 189 187 184 183 183 183 183 185 184 182 182 182 184 187 184 182 182 183 183 183 185 187 184 185 185 184 183 172 175 174 187 210 225 244 290 280 277 284 304 296
183 186 181 178 178 179 179 178 177 178 177 175 177 178 180 185 181 177 177 177 177 177 176 171 167 170 168 165 164 163 163 171 184 187 201 223 245 243 245 270 270 312 298
178 175 172 174 175 176 172 171 172 173 171 172 174 175 178 178 171 170 169 171 171 174 169 162 153 152 147 145 139 131 135 142 161 171 192 220 228 226 202 236 248 260 267
170 170 169 168 170 168 167 170 169 167 168 170 171 170 167 168 163 161 157 159 156 159 160 158 154 151 150 143 134 127 118 114 136 142 171 199 210 199 171 193 238 288 291
168 169 168 165 163 163 166 166 162 159 159 163 164 161 160 161 159 155 150 149 145 142 142 144 148 149 148 142 137 134 120 92 86 101 99 91 79 74 87 78 38 9 316
169 166 163 161 161 162 160 155 151 150 150 149 148 153 155 156 154 150 144 145 141 136 129 135 142 143 145 143 145 146 147 145 113 89 73 65 59 58 62 76 115 30 318
153 152 153 154 153 151 146 144 144 141 140 140 137 138 144 148 150 148 147 149 148 142 140 139 140 139 138 140 138 145 145 134 118 107 89 65 48 41 31 29 51 151 232
142 144 143 143 143 143 142 142 142 141 139 137 132 129 127 137 143 148 147 144 142 142 143 139 134 134 133 132 127 121 118 113 106 100 92 71 39 9 349 348 351 338 276
139 141 140 138 141 145 146 146 145 144 143 143 141 138 131 128 136 139 140 139 135 130 131 132 129 127 122 119 117 117 115 110 111 109 112 83 355 334 351 353 353 352 343
141 142 141 140 140 142 144 148 150 151 148 146 146 143 138 135 135 136 137 132 127 120 119 120 117 113 106 105 106 101 97 115 120 121 113 61 19 14 6 355 348 349 346
141 141 139 140 142 140 135 139 147 154 157 155 155 152 150 152 155 148 144 141 138 131 123 111 107 111 104 99 97 95 92 96 94 95 100 84 49 20 355 353 359 358 342
145 144 143 142 140 136 129 108 91 118 130 135 142 142 141 142 144 142 139 137 135 134 125 128 129 129 130 130 127 115 104 107 104 105 102 95 67 20 350 348 355 352 328
150 147 145 145 142 140 138 133 121 100 102 117 128 131 133 138 138 137 135 134 135 132 123 132 136 138 138 136 134 132 133 123 113 109 105 92 59 10 354 347 347 340 328
144 144 145 145 143 141 139 136 134 132 127 115 118 126 131 135 136 135 134 128 128 120 127 137 140 141 141 141 140 133 126 115 105 103 98 86 64 18 351 343 339 328 322
144 144 140 137 135 135 132 130 129 127 127 126 123 125 129 129 129 133 133 131 139 137 133 134 137 139 140 139 136 131 128 127 120 114 110 100 78 35 340 328 326 334 338
141 140 139 138 135 133 133 133 133 132 132 134 136 137 136 131 132 134 125 126 132 135 135 134 135 135 137 137 134 132 127 127 126 126 146 170 256 323 310 316 320 320 316
140 139 135 134 135 137 137 137 137 137 137 136 136 142 144 139 139 137 134 133 135 136 137 135 134 135 135 135 136 138 139 144 150 156 167 189 203 305 303 304 305 308 313
142 142 141 138 136 137 135 134 134 134 135 133 133 135 135 127 131 133 131 129 125 127 134 136 136 139 145 150 152 151 153 159 165 167 177 198 230 268 297 310 316 317 318
140 139 135 134 134 136 132 132 134 135 135 135 136 136 135 132 132 131 130 129 126 125 127 130 131 131 135 144 154 159 165 178 183 177 177 192 229 266 281 297 309 316 315
141 140 138 137 136 138 137 136 135 135 135 136 136 136 136 134 132 131 130 129 127 126 128 131 135 140 140 142 147 155 169 181 182 187 187 187 214 256 275 291 301 304 307
140 140 140 140 140 139 138 138 137 138 137 138 137 136 134 133 132 131 131 130 129 130 130 132 136 140 143 145 149 155 163 170 180 188 189 190 203 238 261 277 290 300 302
139 138 138 139 140 140 141 141 141 140 139 139 138 137 137 137 136 135 135 134 133 132 131 134 139 143 145 148 154 159 166 176 190 202 186 185 198 239 258 271 285 294 299
Height
1393 1400 1407 1413 1419 1425 1431 1436 1443 1448 1454 1459 1464 1469 1473 1477 1481 1485 1488 1492 1495 1498 1501 1503 1506 1508 1509 1510 1511 1511 1511 1511 1510 1509 1509 1507 1506 1504 1503 1501 1499 1497 1495
1386 1393 1400 1407 1413 1419 1425 1430 1437 1443 1448 1454 1459 1463 1468 1472 1476 1480 1483 1486 1490 1493 1495 1498 1500 1503 1504 1505 1506 1506 1506 1506 1506 1504 1504 1503 1501 1500 1498 1496 1494 1492 1489
1381 1387 1393 1400 1406 1412 1418 1425 1431 1437 1443 1448 1453 1457 1462 1466 1471 1475 1478 1482 1485 1488 1491 1493 1495 1498 1499 1500 1501 1501 1501 1501 1501 1500 1499 1498 1496 1495 1493 1491 1489 1487 1484
1374 1381 1387 1393 1399 1406 1413 1419 1425 1431 1437 1443 1447 1452 1457 1462 1466 1470 1473 1477 1480 1483 1486 1489 1491 1492 1494 1495 1496 1496 1497 1497 1496 1495 1494 1493 1491 1489 1488 1486 1483 1482 1479
1368 1374 1380 1387 1394 1401 1407 1414 1420 1426 1432 1437 1443 1447 1452 1457 1461 1465 1469 1472 1476 1479 1482 1484 1486 1488 1489 1491 1491 1492 1492 1492 1491 1490 1489 1488 1486 1485 1483 1481 1478 1476 1474
1362 1368 1375 1382 1389 1395 1402 1409 1415 1421 1427 1433 1438 1443 1447 1452 1456 1460 1464 1468 1472 1474 1477 1479 1482 1484 1485 1486 1487 1487 1488 1488 1487 1486 1485 1484 1482 1481 1479 1477 1475 1471 1468
1358 1364 1370 1377 1384 1390 1397 1404 1410 1416 1422 1428 1433 1438 1443 1448 1452 1457 1461 1464 1468 1470 1473 1475 1477 1479 1481 1482 1483 1483 1484 1483 1483 1483 1481 1480 1478 1477 1475 1473 1471 1468 1465
1354 1359 1366 1372 1379 1386 1392 1399 1405 1411 1417 1423 1428 1434 1439 1444 1449 1453 1457 1461 1464 1467 1469 1471 1474 1476 1477 1478 1479 1479 1479 1479 1479 1478 1477 1476 1475 1473 1471 1470 1467 1465 1462
1349 1355 1361 1368 1374 1381 1388 1394 1401 1407 1413 1419 1424 1430 1435 1440 1445 1449 1453 1457 1460 1463 1465 1468 1470 1472 1473 1474 1475 1476 1476 1476 1475 1474 1474 1473 1471 1470 1468 1466 1463 1461 1457
1346 1352 1358 1364 1371 1377 1383 1390 1397 1404 1410 1416 1421 1427 1432 1437 1441 1445 1450 1453 1456 1459 1462 1464 1467 1468 1470 1471 1472 1472 1472 1472 1472 1471 1470 1469 1468 1466 1464 1463 1460 1457 1454
1344 1350 1356 1362 1368 1374 1381 1387 1394 1400 1407 1413 1418 1424 1429 1434 1438 1442 1446 1450 1453 1456 1459 1461 1463 1465 1467 1468 1469 1469 1469 1469 1469 1468 1467 1466 1465 1463 1461 1460 1457 1455 1452
1343 1348 1354 1360 1366 1372 1378 1385 1391 1397 1403 1409 1415 1420 1426 1431 1435 1439 1443 1447 1450 1453 1456 1458 1460 1462 1464 1465 1466 1466 1466 1466 1466 1465 1464 1463 1462 1460 1459 1457 1455 1453 1450
1342 1347 1353 1359 1364 1370 1376 1382 1388 1394 1400 1406 1412 1417 1422 1428 1432 1437 1441 1445 1448 1451 1454 1456 1458 1460 1461 1462 1463 1464 1464 1463 1463 1462 1461 1460 1459 1458 1456 1454 1452 1450 1448
1340 1346 1351 1356 1362 1368 1374 1380 1385 1390 1396 1402 1408 1413 1419 1424 1429 1433 1438 1442 1445 1448 1451 1454 1456 1458 1459 1460 1461 1461 1461 1461 1460 1460 1459 1458 1457 1455 1454 1452 1450 1447 1445
1340 1345 1350 1355 1361 1366 1372 1378 1384 1390 1395 1400 1405 1411 1416 1421 1426 1432 1435 1440 1443 1446 1449 1451 1453 1455 1457 1458 1458 1459 1459 1458 1458 1457 1457 1456 1455 1453 1452 1450 1447 1445 1442
1338 1343 1348 1353 1359 1364 1370 1376 1384 1390 1396 1401 1407 1411 1416 1421 1425 1430 1434 1438 1441 1444 1447 1449 1451 1453 1454 1455 1456 1456 1457 1456 1456 1455 1455 1454 1453 1451 1450 1448 1445 1443 1440
1337 1341 1346 1352 1357 1362 1368 1374 1379 1388 1394 1400 1406 1411 1415 1420 1424 1429 1432 1436 1440 1443 1446 1448 1449 1451 1452 1453 1454 1454 1454 1454 1454 1454 1453 1452 1451 1449 1448 1446 1443 1441 1439
1337 1341 1345 1350 1356 1361 1367 1373 1378 1384 1390 1397 1404 1409 1414 1419 1423 1427 1431 1435 1438 1441 1444 1446 1447 1449 1450 1451 1452 1452 1452 1452 1452 1452 1451 1450 1449 1447 1446 1444 1442 1440 1437
1336 1340 1344 1349 1355 1360 1367 1373 1379 1385 1390 1396 1401 1408 1413 1418 1422 1426 1430 1434 1436 1439 1441 1444 1445 1447 1448 1449 1450 1450 1450 1450 1450 1450 1449 1448 1447 1445 1444 1442 1440 1438 1436
1334 1339 1343 1348 1354 1360 1366 1372 1378 1384 1389 1395 1400 1405 1411 1415 1420 1424 1428 1432 1435 1438 1440 1442 1444 1445 1447 1448 1448 1449 1449 1449 1449 1448 1447 1446 1445 1444 1442 1441 1439 1437 1435
1333 1338 1343 1348 1354 1359 1366 1372 1378 1383 1389 1394 1400 1405 1410 1415 1419 1423 1427 1430 1434 1436 1439 1441 1442 1444 1445 1446 1447 1447 1447 1447 1447 1446 1446 1445 1443 1442 1441 1439 1437 1435 1433
1332 1336 1342 1348 1353 1359 1366 1372 1377 1383 1389 1394 1399 1405 1410 1415 1419 1423 1426 1429 1433 1435 1438 1439 1441 1442 1444 1445 1445 1445 1446 1445 1445 1445 1444 1443 1442 1441 1439 1438 1436 1434 1432
1331 1336 1341 1347 1353 1359 1366 1372 1377 1383 1389 1394 1399 1404 1409 1413 1418 1422 1425 1429 1431 1434 1436 1438 1440 1441 1442 1443 1444 1444 1444 1444 1443 1443 1442 1441 1440 1439 1438 1436 1434 1432 1431
1330 1335 1340 1346 1352 1359 1365 1371 1377 1383 1389 1394 1399 1403 1408 1413 1417 1421 1425 1428 1431 1433 1435 1437 1439 1440 1441 1441 1442 1442 1442 1442 1442 1441 1440 1439 1438 1437 1436 1434 1433 1431 1429
1329 1334 1340 1345 1351 1358 1364 1370 1376 1382 1388 1393 1398 1403 1408 1412 1416 1420 1424 1427 1430 1432 1434 1436 1437 1438 1439 1440 1440 1440 1440 1440 1440 1439 1438 1438 1436 1435 1434 1433 1431 1430 1428
1329 1334 1339 1345 1351 1357 1363 1369 1375 1381 1387 1392 1398 1403 1407 1411 1416 1419 1423 1426 1428 1431 1433 1435 1436 1437 1438 1438 1439 1439 1438 1438 1438 1437 1436 1435 1434 1433 1432 1431 1430 1428 1427